�������l�o���
Date,Time,MP-1(��Sv/h),MP-2(��Sv/h),MP-3(��Sv/h),MP-4(��Sv/h),MP-5(��Sv/h),MP-6(��Sv/h),MP-7(��Sv/h),MP-8(��Sv/h),����,����(m/s),���J
2019/07/10,00:00,0.727,1.027,0.689,1.272,0.905,0.422,0.729,0.697,�k�k��,3.4,��
2019/07/10,00:10,0.728,1.030,0.691,1.272,0.904,0.421,0.729,0.695,�k�k��,3.6,��
2019/07/10,00:20,0.728,1.028,0.689,1.270,0.904,0.420,0.730,0.694,�k�k��,4.1,��
2019/07/10,00:30,0.728,1.028,0.691,1.272,0.906,0.422,0.729,0.696,�k�k��,3.7,��
2019/07/10,00:40,0.729,1.029,0.689,1.274,0.906,0.421,0.727,0.696,�k�k��,3.8,��
2019/07/10,00:50,0.728,1.028,0.689,1.272,0.906,0.421,0.729,0.696,�k��,4.2,��
2019/07/10,01:00,0.729,1.029,0.692,1.274,0.906,0.421,0.729,0.697,�k�k��,4.1,��
2019/07/10,01:10,0.728,1.031,0.691,1.274,0.906,0.422,0.729,0.696,�k�k��,3.9,��
2019/07/10,01:20,0.728,1.029,0.690,1.271,0.905,0.421,0.729,0.696,�k�k��,4.2,��
2019/07/10,01:30,0.728,1.029,0.689,1.272,0.906,0.423,0.730,0.697,�k��,3.7,��
2019/07/10,01:40,0.728,1.029,0.691,1.272,0.906,0.422,0.728,0.696,�k��,4.3,��
2019/07/10,01:50,0.726,1.030,0.690,1.273,0.905,0.424,0.730,0.697,�k��,4.0,��
2019/07/10,02:00,0.729,1.029,0.692,1.273,0.906,0.421,0.729,0.696,�k�k��,3.7,��
2019/07/10,02:10,0.726,1.026,0.691,1.274,0.906,0.422,0.729,0.697,�k��,4.1,��
2019/07/10,02:20,0.727,1.030,0.690,1.273,0.907,0.421,0.730,0.698,�k�k��,4.0,��
2019/07/10,02:30,0.728,1.030,0.690,1.272,0.907,0.421,0.730,0.695,�k��,4.0,��
2019/07/10,02:40,0.728,1.030,0.692,1.273,0.906,0.423,0.730,0.696,�k�k��,3.8,��
2019/07/10,02:50,0.726,1.029,0.691,1.273,0.908,0.422,0.730,0.699,�k�k��,4.2,��
2019/07/10,03:00,0.727,1.029,0.690,1.272,0.906,0.422,0.730,0.697,�k�k��,4.7,��
2019/07/10,03:10,0.727,1.028,0.690,1.274,0.908,0.423,0.729,0.696,�k�k��,4.0,��
2019/07/10,03:20,0.726,1.028,0.692,1.274,0.906,0.421,0.729,0.695,�k�k��,4.5,��
2019/07/10,03:30,0.728,1.030,0.690,1.274,0.907,0.422,0.729,0.696,�k�k��,4.9,��
2019/07/10,03:40,0.729,1.028,0.690,1.273,0.906,0.421,0.729,0.697,�k�k��,4.8,��
2019/07/10,03:50,0.726,1.030,0.691,1.275,0.909,0.423,0.729,0.696,�k�k��,5.3,��
2019/07/10,04:00,0.727,1.030,0.692,1.274,0.905,0.423,0.728,0.696,�k�k��,5.0,��
2019/07/10,04:10,0.728,1.030,0.691,1.272,0.908,0.422,0.731,0.695,�k�k��,4.9,��
2019/07/10,04:20,0.728,1.032,0.691,1.274,0.906,0.421,0.728,0.697,�k�k��,5.2,��
2019/07/10,04:30,0.726,1.029,0.691,1.274,0.904,0.422,0.730,0.696,�k�k��,5.4,��
2019/07/10,04:40,0.729,1.031,0.691,1.275,0.906,0.422,0.728,0.697,�k�k��,4.7,��
2019/07/10,04:50,0.726,1.027,0.692,1.272,0.906,0.422,0.728,0.697,�k��,5.2,��
2019/07/10,05:00,0.726,1.032,0.691,1.273,0.905,0.422,0.731,0.695,�k�k��,4.6,��
2019/07/10,05:10,0.728,1.030,0.691,1.273,0.908,0.421,0.730,0.695,�k�k��,4.8,��
2019/07/10,05:20,0.729,1.028,0.692,1.272,0.906,0.421,0.728,0.696,�k�k��,5.2,��
2019/07/10,05:30,0.729,1.030,0.692,1.274,0.907,0.422,0.729,0.697,�k�k��,5.4,��
2019/07/10,05:40,0.728,1.030,0.691,1.273,0.906,0.421,0.728,0.696,�k�k��,4.6,��
2019/07/10,05:50,0.728,1.029,0.690,1.271,0.907,0.420,0.729,0.697,�k�k��,4.4,��
2019/07/10,06:00,0.728,1.027,0.692,1.274,0.906,0.421,0.728,0.698,�k�k��,3.7,��
2019/07/10,06:10,0.729,1.032,0.694,1.275,0.908,0.421,0.728,0.696,�k�k��,3.9,�L
2019/07/10,06:20,0.729,1.031,0.692,1.273,0.909,0.422,0.728,0.697,�k,3.2,��
2019/07/10,06:30,0.727,1.029,0.691,1.274,0.907,0.423,0.728,0.696,�k�k��,3.4,��
2019/07/10,06:40,0.728,1.029,0.692,1.273,0.907,0.422,0.729,0.697,�k,2.9,��
2019/07/10,06:50,0.728,1.029,0.691,1.273,0.907,0.421,0.729,0.696,�k�k��,3.0,��
2019/07/10,07:00,0.727,1.029,0.692,1.273,0.907,0.423,0.730,0.696,�k�k��,3.2,��
2019/07/10,07:10,0.727,1.030,0.693,1.276,0.909,0.421,0.730,0.695,�k�k��,2.8,��
2019/07/10,07:20,0.728,1.029,0.692,1.275,0.907,0.421,0.728,0.695,�k,2.6,��
2019/07/10,07:30,0.726,1.025,0.690,1.273,0.907,0.421,0.729,0.694,�k,5.2,��
2019/07/10,07:40,0.725,1.027,0.692,1.273,0.909,0.422,0.729,0.696,�k�k��,4.8,��
2019/07/10,07:50,0.727,1.028,0.690,1.276,0.906,0.420,0.729,0.694,�k�k��,5.6,��
2019/07/10,08:00,0.726,1.026,0.691,1.274,0.905,0.421,0.729,0.696,�k�k��,6.1,��
2019/07/10,08:10,0.727,1.027,0.689,1.274,0.907,0.421,0.730,0.694,�k�k��,6.5,��
2019/07/10,08:20,0.726,1.025,0.689,1.273,0.906,0.420,0.730,0.694,�k�k��,6.2,��
2019/07/10,08:30,0.729,1.026,0.689,1.274,0.907,0.421,0.730,0.693,�k�k��,6.0,��
2019/07/10,08:40,0.728,1.026,0.689,1.277,0.906,0.420,0.731,0.694,�k��,6.7,��
2019/07/10,08:50,0.728,1.028,0.687,1.274,0.905,0.421,0.731,0.694,�k�k��,6.3,��
2019/07/10,09:00,0.728,1.028,0.689,1.276,0.905,0.418,0.730,0.694,�k�k��,6.1,��
2019/07/10,09:10,0.728,1.028,0.688,1.275,0.907,0.421,0.731,0.696,�k�k��,6.4,��
2019/07/10,09:20,0.727,1.028,0.689,1.274,0.906,0.422,0.730,0.695,�k�k��,6.2,��
2019/07/10,09:30,0.728,1.028,0.689,1.273,0.908,0.420,0.731,0.694,�k��,5.7,��
2019/07/10,09:40,0.730,1.028,0.689,1.275,0.907,0.421,0.730,0.696,�k�k��,5.7,��
2019/07/10,09:50,0.730,1.030,0.691,1.274,0.908,0.421,0.732,0.696,�k�k��,5.4,��
2019/07/10,10:00,0.729,1.029,0.691,1.274,0.908,0.421,0.731,0.695,�k�k��,6.1,��
2019/07/10,10:10,0.730,1.030,0.689,1.276,0.908,0.420,0.731,0.695,�k��,5.3,��
2019/07/10,10:20,0.729,1.030,0.688,1.277,0.908,0.421,0.730,0.694,�k�k��,5.3,��
2019/07/10,10:30,0.730,1.030,0.689,1.273,0.867,0.423,0.729,0.696,�k��,5.4,��
2019/07/10,10:40,0.730,1.030,0.691,1.277,0.866,0.422,0.732,0.695,�k�k��,5.3,��
2019/07/10,10:50,0.730,1.031,0.690,1.277,0.883,0.421,0.733,0.696,�k�k��,5.6,��
2019/07/10,11:00,0.729,1.027,0.689,1.275,0.870,0.421,0.733,0.694,�k��,4.8,��
2019/07/10,11:10,0.732,1.029,0.691,1.275,0.862,0.421,0.731,0.696,�k�k��,5.1,��
2019/07/10,11:20,0.731,1.033,0.692,1.274,0.875,0.421,0.733,0.695,�k��,5.1,��
2019/07/10,11:30,0.731,1.031,0.690,1.274,0.874,0.421,0.732,0.695,�k�k��,4.9,��
2019/07/10,11:40,0.732,1.033,0.690,1.276,0.862,0.423,0.733,0.695,�k��,4.5,��
2019/07/10,11:50,0.731,1.036,0.692,1.278,0.865,0.422,0.731,0.695,�k��,4.7,��
2019/07/10,12:00,0.729,1.034,0.693,1.275,0.861,0.420,0.734,0.695,�k��,5.0,��
2019/07/10,12:10,0.733,1.037,0.692,1.279,0.865,0.423,0.733,0.697,�k�k��,5.0,��
2019/07/10,12:20,0.731,1.034,0.692,1.276,0.896,0.422,0.731,0.696,�k��,4.8,��
2019/07/10,12:30,0.732,1.037,0.694,1.276,0.912,0.422,0.733,0.696,�k�k��,4.4,��
2019/07/10,12:40,0.733,1.036,0.694,1.278,0.911,0.421,0.732,0.696,�k��,4.6,��
2019/07/10,12:50,0.734,1.037,0.694,1.278,0.910,0.423,0.732,0.696,�k��,5.7,��
2019/07/10,13:00,0.731,1.037,0.692,1.279,0.911,0.423,0.732,0.695,�k��,4.9,��
2019/07/10,13:10,0.731,1.038,0.694,1.280,0.913,0.423,0.732,0.697,�k��,4.4,��
2019/07/10,13:20,0.733,1.036,0.693,1.276,0.912,0.423,0.732,0.696,�k�k��,4.8,��
2019/07/10,13:30,0.732,1.037,0.693,1.278,0.910,0.422,0.732,0.696,�k��,4.1,��
2019/07/10,13:40,0.731,1.038,0.694,1.276,0.893,0.421,0.733,0.698,�k��,4.4,��
2019/07/10,13:50,0.735,1.036,0.694,1.280,0.887,0.422,0.732,0.697,�k��,4.6,��
2019/07/10,14:00,0.732,1.038,0.693,1.279,0.871,0.423,0.732,0.698,�k��,4.1,��
2019/07/10,14:10,0.732,1.036,0.691,1.279,0.860,0.422,0.732,0.697,�k��,4.2,��
2019/07/10,14:20,0.733,1.038,0.695,1.277,0.867,0.423,0.733,0.695,�k��,4.1,��
2019/07/10,14:30,0.734,1.036,0.694,1.278,0.871,0.422,0.733,0.696,�k��,4.3,��
2019/07/10,14:40,0.732,1.037,0.692,1.278,0.871,0.422,0.731,0.695,�k�k��,3.6,��
2019/07/10,14:50,0.734,1.038,0.692,1.278,0.895,0.423,0.734,0.697,�k��,3.5,��
2019/07/10,15:00,0.732,1.040,0.694,1.284,0.894,0.423,0.733,0.696,�k��,3.5,��
2019/07/10,15:10,0.733,1.038,0.695,1.281,0.901,0.423,0.734,0.695,�k��,3.1,��
2019/07/10,15:20,0.735,1.039,0.694,1.279,0.915,0.424,0.732,0.697,�k��,4.6,��
2019/07/10,15:30,0.733,1.039,0.694,1.280,0.914,0.424,0.731,0.696,�k�k��,4.8,��
2019/07/10,15:40,0.733,1.042,0.695,1.282,0.916,0.422,0.732,0.697,�k�k��,4.9,��
2019/07/10,15:50,0.733,1.040,0.694,1.282,0.914,0.422,0.732,0.696,�k��,4.6,��
2019/07/10,16:00,0.732,1.041,0.694,1.280,0.917,0.422,0.732,0.697,�k��,4.6,��
2019/07/10,16:10,0.734,1.043,0.694,1.281,0.916,0.423,0.733,0.696,�k��,5.1,��
2019/07/10,16:20,0.734,1.043,0.694,1.281,0.916,0.422,0.733,0.697,�k��,4.9,��
2019/07/10,16:30,0.734,1.042,0.693,1.283,0.913,0.423,0.732,0.696,�k��,4.9,��
2019/07/10,16:40,0.734,1.041,0.692,1.283,0.916,0.422,0.732,0.697,�k��,5.0,��
2019/07/10,16:50,0.733,1.042,0.693,1.283,0.914,0.422,0.732,0.695,�k��,5.5,��
2019/07/10,17:00,0.732,1.041,0.695,1.283,0.915,0.421,0.733,0.697,�k��,5.0,��
2019/07/10,17:10,0.732,1.042,0.694,1.287,0.915,0.421,0.732,0.696,�k��,5.2,��
2019/07/10,17:20,0.732,1.042,0.696,1.285,0.917,0.423,0.733,0.698,�k��,5.4,��
2019/07/10,17:30,0.733,1.043,0.695,1.286,0.917,0.423,0.731,0.697,���k��,5.2,��
2019/07/10,17:40,0.734,1.042,0.697,1.286,0.919,0.422,0.733,0.697,�k��,4.9,��
2019/07/10,17:50,0.732,1.044,0.696,1.284,0.917,0.423,0.731,0.698,���k��,5.1,��
2019/07/10,18:00,0.733,1.043,0.697,1.287,0.915,0.423,0.732,0.699,�k��,5.3,��
2019/07/10,18:10,0.732,1.044,0.698,1.285,0.914,0.423,0.733,0.697,�k��,4.5,��
2019/07/10,18:20,0.733,1.044,0.696,1.282,0.916,0.423,0.734,0.695,�k��,4.6,��
2019/07/10,18:30,0.731,1.044,0.698,1.286,0.916,0.422,0.732,0.696,�k��,3.8,��
2019/07/10,18:40,0.733,1.043,0.699,1.285,0.916,0.423,0.732,0.698,�k��,4.1,��
2019/07/10,18:50,0.732,1.047,0.696,1.289,0.916,0.422,0.733,0.696,���k��,4.2,��
2019/07/10,19:00,0.733,1.045,0.696,1.287,0.918,0.423,0.734,0.696,�k��,3.6,��
2019/07/10,19:10,0.734,1.047,0.696,1.288,0.918,0.424,0.733,0.697,�k��,3.4,��
2019/07/10,19:20,0.733,1.046,0.698,1.286,0.917,0.423,0.734,0.698,�k��,3.4,��
2019/07/10,19:30,0.732,1.045,0.697,1.288,0.919,0.423,0.733,0.699,�k��,3.4,��
2019/07/10,19:40,0.736,1.046,0.699,1.286,0.916,0.422,0.733,0.697,�k�k��,3.2,��
2019/07/10,19:50,0.733,1.044,0.697,1.286,0.918,0.423,0.733,0.699,�k�k��,3.2,��
2019/07/10,20:00,0.735,1.048,0.697,1.287,0.919,0.423,0.733,0.699,�k��,4.0,��
2019/07/10,20:10,0.734,1.049,0.697,1.287,0.919,0.425,0.732,0.699,�k�k��,3.8,��
2019/07/10,20:20,0.733,1.047,0.698,1.287,0.919,0.424,0.732,0.698,�k��,3.7,��
2019/07/10,20:30,0.734,1.047,0.697,1.284,0.919,0.424,0.732,0.699,�k��,4.0,��
2019/07/10,20:40,0.735,1.047,0.697,1.288,0.920,0.424,0.733,0.699,�k��,4.0,��
2019/07/10,20:50,0.735,1.046,0.698,1.285,0.920,0.423,0.732,0.700,�k�k��,3.1,��
2019/07/10,21:00,0.732,1.048,0.698,1.285,0.919,0.423,0.733,0.699,�k�k��,3.0,��
2019/07/10,21:10,0.735,1.046,0.699,1.285,0.918,0.423,0.733,0.698,�k,2.0,��
2019/07/10,21:20,0.733,1.048,0.699,1.286,0.920,0.424,0.732,0.699,�k�k��,3.0,��
2019/07/10,21:30,0.737,1.047,0.698,1.286,0.921,0.424,0.732,0.698,�k�k��,2.8,��
2019/07/10,21:40,0.735,1.045,0.698,1.288,0.921,0.423,0.733,0.699,�k,3.0,��
2019/07/10,21:50,0.735,1.048,0.697,1.284,0.921,0.423,0.732,0.698,�k�k��,2.3,��
2019/07/10,22:00,0.734,1.048,0.700,1.287,0.918,0.423,0.731,0.701,�k�k��,3.9,��
2019/07/10,22:10,0.735,1.046,0.697,1.288,0.920,0.422,0.733,0.700,�k�k��,3.0,��
2019/07/10,22:20,0.734,1.046,0.697,1.285,0.920,0.424,0.732,0.699,�k�k��,2.3,��
2019/07/10,22:30,0.736,1.044,0.698,1.289,0.919,0.423,0.732,0.700,�k��,3.2,��
2019/07/10,22:40,0.736,1.048,0.697,1.288,0.920,0.424,0.731,0.700,�k�k��,3.1,��
2019/07/10,22:50,0.735,1.044,0.699,1.285,0.918,0.423,0.732,0.698,�k,2.6,��
2019/07/10,23:00,0.736,1.048,0.699,1.287,0.918,0.425,0.734,0.698,�k�k��,3.1,��
2019/07/10,23:10,0.735,1.048,0.698,1.287,0.919,0.426,0.734,0.700,�k�k��,3.4,��
2019/07/10,23:20,0.736,1.046,0.699,1.286,0.921,0.425,0.733,0.699,�k�k��,3.2,��
2019/07/10,23:30,0.736,1.048,0.699,1.285,0.920,0.425,0.733,0.699,�k�k��,3.6,��
2019/07/10,23:40,0.738,1.047,0.698,1.287,0.918,0.424,0.735,0.698,�k�k��,3.6,��
2019/07/10,23:50,0.736,1.047,0.698,1.286,0.920,0.424,0.734,0.698,�k�k��,4.1,��
